Tracking 29892 objects as of 21-Nov-2024
HD Live streaming from Space Station
objects crossing your sky now

OPS 4682 DEB

Track OPS 4682 DEB now!
10-day predictions


NORAD ID: 38361
Int'l Code: 1965-027BN
Perigee: 1,244.9 km
Apogee: 1,293.6 km
Inclination: 90.2 °
Period: 110.8 minutes
Semi major axis: 7640 km
RCS: 0.0081 m2 (small)
Launch date: April 3, 1965
Source: United States (US)
Launch site: AIR FORCE WESTERN TEST RANGE (AFWTR)

Note: This is SATELLITE DEBRIS
Your satellite tracking list
Your tracking list is empty




NASA's NSSDC Master Catalog

Two Line Element Set (TLE):
1 38361U 65027BN  24323.39788145  .00001068  00000-0  35190-2 0  9995
2 38361  90.2365 359.0182 0031886 345.9981  14.0254 12.99994619511126
Source of the keplerian elements: AFSPC